Weather History for KIBM - December, 2012

Change the Weather History Date:

Monday, December 10, 2012

  Actual Average (KSNY) Record (KSNY)
Temperature  
Mean Temperature 20 °F 29 °F  
Max Temperature 37 °F 41 °F 66 °F (1968)
Min Temperature 4 °F 16 °F -16 °F (1972)
Degree Days  
Heating Degree Days 44 36  
Month to date heating degree days 352  
Since 1 July heating degree days 1774  
Cooling Degree Days 0 0  
Month to date cooling degree days 0  
Year to date cooling degree days 830  
Moisture  
Dew Point 7 °F    
Average Humidity 53    
Maximum Humidity 83    
Minimum Humidity 28    
Precipitation  
Precipitation 0.00 in 0.02 in 0.32 in (1963)
Month to date precipitation 0.20  
Year to date precipitation 18.20  
Sea Level Pressure  
Sea Level Pressure 29.86 in    
Wind  
Wind Speed 13 mph (WNW)    
Max Wind Speed 28 mph    
Max Gust Speed 36 mph    
Visibility 10 miles    
Events      
T = Trace of Precipitation, MM = Missing Value Source: NWS Daily Summary

Daily Weather History Graph

Daily Weather History Graph

Search for Another Location

Airport or City:

Trip Planner

Search our weather history database for the weather conditions in past years. The results will help you decide how hot, cold, wet, or windy it might be!

Date:

Astronomy

Dec. 10, 2012 Rise Set
Actual Time 8:09 AM CST 5:25 PM CST
Civil Twilight 7:38 AM CST 5:56 PM CST
Nautical Twilight 7:03 AM CST 6:31 PM CST
Astronomical Twilight 6:30 AM CST 7:05 PM CST
Moon 4:54 AM CST (12/10) 3:17 PM CST (12/10)
Length of Visible Light 10h 18m
Length of Day
9h 16m
Waning Crescent, 10% of the Moon is Illuminated
Dec 10
Waning Crescent
Dec 13
New
Dec 19
First Quarter
Dec 28
Full
Jan 4
Last Quarter

Hourly Weather History & Observations

Time (CST) Temp. Windchill Dew Point Humidity Pressure Visibility Wind Dir Wind Speed Gust Speed Precip Events Conditions
12:15 AM 4.5 °F -9.8 °F -2.4 °F 73% 30.00 in 10.0 mi SW 9.2 mph - N/A   Clear
12:35 AM 5.9 °F -8.0 °F -2.0 °F 70% 29.99 in 10.0 mi SW 9.2 mph - N/A   Clear
12:55 AM 5.5 °F -9.3 °F -2.0 °F 71% 29.98 in 10.0 mi WSW 10.4 mph - N/A   Clear
1:15 AM 5.4 °F -8.6 °F -2.2 °F 71% 29.96 in 10.0 mi SW 9.2 mph - N/A   Clear
1:35 AM 7.2 °F -8.1 °F -0.9 °F 69% 29.95 in 10.0 mi WSW 11.5 mph - N/A   Clear
1:55 AM 6.8 °F -8.6 °F -1.3 °F 69% 29.94 in 10.0 mi WSW 11.5 mph - N/A   Clear
2:15 AM 7.9 °F -7.2 °F -1.1 °F 67% 29.92 in 10.0 mi WSW 11.5 mph - N/A   Clear
2:55 AM 8.2 °F -6.0 °F -0.6 °F 67% 29.91 in 10.0 mi SW 10.4 mph - N/A   Scattered Clouds
3:15 AM 8.6 °F -4.7 °F -0.4 °F 67% 29.91 in 10.0 mi WSW 9.2 mph - N/A   Scattered Clouds
3:35 AM 8.6 °F -5.5 °F -0.2 °F 67% 29.90 in 10.0 mi WSW 10.4 mph - N/A   Clear
3:55 AM 7.2 °F -6.4 °F -0.8 °F 70% 29.89 in 10.0 mi SW 9.2 mph - N/A   Clear
4:15 AM 7.3 °F -5.2 °F -0.6 °F 70% 29.88 in 10.0 mi WSW 8.1 mph - N/A   Clear
4:35 AM 9.5 °F -1.5 °F 1.2 °F 69% 29.87 in 10.0 mi WSW 6.9 mph - N/A   Mostly Cloudy
4:55 AM 14.4 °F 1.6 °F 3.2 °F 61% 29.87 in 10.0 mi WSW 10.4 mph - N/A   Overcast
5:15 AM 17.2 °F 2.7 °F 3.2 °F 54% 29.86 in 10.0 mi WSW 15.0 mph - N/A   Overcast
5:35 AM 18.3 °F 5.9 °F 3.2 °F 52% 29.85 in 10.0 mi West 11.5 mph - N/A   Overcast
5:55 AM 19.0 °F 6.8 °F 3.9 °F 52% 29.84 in 10.0 mi West 11.5 mph - N/A   Overcast
6:15 AM 21.0 °F 7.6 °F 3.9 °F 48% 29.84 in 10.0 mi West 15.0 mph - N/A   Overcast
6:35 AM 21.6 °F 8.2 °F 4.1 °F 47% 29.83 in 10.0 mi West 15.0 mph - N/A   Overcast
6:55 AM 23.9 °F 10.3 °F 4.1 °F 43% 29.83 in 10.0 mi West 17.3 mph - N/A   Overcast
7:15 AM 24.1 °F 13.1 °F 4.6 °F 43% 29.83 in 10.0 mi West 11.5 mph - N/A   Overcast
7:35 AM 23.0 °F 12.4 °F 4.3 °F 45% 29.83 in 10.0 mi WSW 10.4 mph - N/A   Overcast
7:55 AM 21.2 °F 10.1 °F 4.5 °F 49% 29.83 in 10.0 mi West 10.4 mph - N/A   Overcast
8:15 AM 21.9 °F 9.2 °F 4.6 °F 48% 29.83 in 10.0 mi West 13.8 mph - N/A   Overcast
8:35 AM 24.1 °F 11.5 °F 4.8 °F 44% 29.83 in 10.0 mi WNW 15.0 mph - N/A   Overcast
8:55 AM 23.2 °F 10.8 °F 4.8 °F 45% 29.83 in 10.0 mi WNW 13.8 mph - N/A   Mostly Cloudy
9:15 AM 26.8 °F 15.4 °F 5.0 °F 40% 29.84 in 10.0 mi WNW 13.8 mph - N/A   Overcast
9:35 AM 27.3 °F 15.6 °F 5.2 °F 39% 29.85 in 10.0 mi WNW 15.0 mph - N/A   Overcast
9:55 AM 29.5 °F 18.0 °F 5.5 °F 36% 29.85 in 10.0 mi West 16.1 mph - N/A   Overcast
10:15 AM 31.3 °F 19.9 °F 5.9 °F 34% 29.84 in 10.0 mi WNW 17.3 mph 24.2 mph N/A   Overcast
10:35 AM 31.8 °F 19.9 °F 6.1 °F 34% 29.83 in 10.0 mi WNW 19.6 mph 25.3 mph N/A   Scattered Clouds
10:55 AM 33.8 °F 21.3 °F 7.3 °F 33% 29.83 in 10.0 mi NW 24.2 mph 35.7 mph N/A   Scattered Clouds
11:15 AM 34.5 °F 21.5 °F 7.7 °F 33% 29.84 in 10.0 mi WNW 27.6 mph 34.5 mph N/A   Overcast
11:35 AM 35.1 °F 23.5 °F 8.1 °F 33% 29.84 in 10.0 mi NW 21.9 mph 33.4 mph N/A   Overcast
11:55 AM 33.8 °F 21.0 °F 7.7 °F 34% 29.83 in 10.0 mi WNW 25.3 mph 31.1 mph N/A   Overcast
12:15 PM 35.1 °F 24.1 °F 7.3 °F 31% 29.82 in 10.0 mi NW 19.6 mph 31.1 mph N/A   Overcast
12:35 PM 36.1 °F 25.0 °F 7.5 °F 30% 29.81 in 10.0 mi NW 21.9 mph 28.8 mph N/A   Mostly Cloudy
12:55 PM 36.5 °F 26.0 °F 6.8 °F 29% 29.80 in 10.0 mi NW 19.6 mph 26.5 mph N/A   Scattered Clouds
1:15 PM 36.7 °F 26.3 °F 6.3 °F 28% 29.79 in 10.0 mi NW 19.6 mph 31.1 mph N/A   Clear
1:35 PM 36.5 °F 24.7 °F 6.3 °F 28% 29.79 in 10.0 mi NNW 25.3 mph - N/A   Scattered Clouds
1:55 PM 37.2 °F 27.0 °F 6.3 °F 28% 29.78 in 10.0 mi NNW 19.6 mph 29.9 mph N/A   Mostly Cloudy
2:15 PM 36.9 °F 25.9 °F 6.3 °F 28% 29.77 in 10.0 mi NNW 21.9 mph 32.2 mph N/A   Scattered Clouds
2:35 PM 36.9 °F 25.6 °F 6.4 °F 28% 29.77 in 10.0 mi NNW 23.0 mph 29.9 mph N/A   Clear
2:55 PM 36.1 °F 25.2 °F 6.8 °F 29% 29.77 in 10.0 mi NW 20.7 mph 31.1 mph N/A   Scattered Clouds
3:15 PM 36.1 °F 26.2 °F 7.5 °F 30% 29.78 in 10.0 mi NW 17.3 mph 26.5 mph N/A   Scattered Clouds
3:35 PM 34.2 °F 24.4 °F 7.3 °F 33% 29.78 in 10.0 mi NNW 15.0 mph 20.7 mph N/A   Mostly Cloudy
3:55 PM 34.2 °F 24.4 °F 6.8 °F 32% 29.79 in 10.0 mi North 15.0 mph - N/A   Mostly Cloudy
4:15 PM 33.3 °F 24.6 °F 6.8 °F 33% 29.80 in 10.0 mi NNW 11.5 mph - N/A   Mostly Cloudy
4:35 PM 33.1 °F 23.9 °F 6.8 °F 33% 29.81 in 10.0 mi NNW 12.7 mph - N/A   Overcast
4:55 PM 32.4 °F 23.0 °F 6.8 °F 34% 29.81 in 10.0 mi NNW 12.7 mph - N/A   Overcast
5:15 PM 31.8 °F 22.8 °F 7.7 °F 36% 29.82 in 10.0 mi NNW 11.5 mph - N/A   Overcast
5:35 PM 30.9 °F 19.4 °F 11.3 °F 44% 29.83 in 10.0 mi NNW 17.3 mph - N/A   Overcast
5:55 PM 29.8 °F 17.7 °F 12.4 °F 48% 29.83 in 10.0 mi North 18.4 mph - N/A   Mostly Cloudy
6:15 PM 27.5 °F 16.3 °F 15.6 °F 61% 29.85 in 10.0 mi NNW 13.8 mph 20.7 mph N/A   Scattered Clouds
6:35 PM 27.3 °F 17.7 °F 18.5 °F 69% 29.85 in 10.0 mi NNW 10.4 mph - N/A   Mostly Cloudy
6:55 PM 27.3 °F 19.1 °F 19.2 °F 72% 29.85 in 10.0 mi NW 8.1 mph - N/A   Overcast
7:15 PM 26.4 °F 18.9 °F 19.0 °F 74% 29.85 in 10.0 mi NW 6.9 mph - N/A   Overcast
7:35 PM 26.4 °F 17.3 °F 19.4 °F 75% 29.86 in 10.0 mi NW 9.2 mph - N/A   Mostly Cloudy
7:55 PM 25.0 °F 17.1 °F 18.7 °F 77% 29.87 in 10.0 mi NW 6.9 mph - N/A   Scattered Clouds
8:15 PM 24.1 °F 17.0 °F 18.3 °F 79% 29.87 in 10.0 mi NW 5.8 mph - N/A   Mostly Cloudy
8:55 PM 21.6 °F 14.0 °F 17.2 °F 83% 29.88 in 10.0 mi NW 5.8 mph - N/A   Clear
9:15 PM 22.1 °F 13.7 °F 17.1 °F 81% 29.88 in 10.0 mi NW 6.9 mph - N/A   Clear
9:35 PM 21.9 °F 13.4 °F 16.5 °F 80% 29.89 in 10.0 mi NW 6.9 mph - N/A   Clear
9:55 PM 22.8 °F 13.6 °F 15.8 °F 74% 29.90 in 10.0 mi NW 8.1 mph - N/A   Scattered Clouds
10:15 PM 22.5 °F 13.2 °F 15.6 °F 75% 29.91 in 10.0 mi NW 8.1 mph - N/A   Overcast
10:35 PM 22.1 °F 12.8 °F 15.6 °F 76% 29.92 in 10.0 mi NW 8.1 mph - N/A   Overcast
10:55 PM 22.5 °F 14.1 °F 15.6 °F 75% 29.92 in 10.0 mi WNW 6.9 mph - N/A   Overcast
11:15 PM 21.2 °F 10.9 °F 14.7 °F 76% 29.92 in 10.0 mi WNW 9.2 mph - N/A   Mostly Cloudy
11:35 PM 20.1 °F 9.5 °F 14.5 °F 79% 29.92 in 10.0 mi West 9.2 mph - N/A   Scattered Clouds
11:55 PM 18.5 °F 6.1 °F 13.6 °F 81% 29.92 in 10.0 mi West 11.5 mph - N/A   Scattered Clouds